Grand Prairie, TX

1:50 AM CDT on May 29, 2017 (GMT -0500)
Grand Prairie Municipal

Weather History for KGPM - November, 2013

Change the Weather History Date:

Sunday, November 3, 2013

  Actual Average (KRBD) Record (KRBD)
Temperature  
Mean Temperature 56 °F -  
Max Temperature 66 °F 67 °F 84 °F (2012)
Min Temperature 46 °F 49 °F 32 °F (1999)
Degree Days  
Heating Degree Days 9    
Growing Degree Days 6 (Base 50)    
Moisture  
Dew Point 38 °F    
Average Humidity 56    
Maximum Humidity 71    
Minimum Humidity 34    
Precipitation  
Precipitation 0.00 in - - ()
Sea Level Pressure  
Sea Level Pressure 30.17 in    
Wind  
Wind Speed 3 mph (SSE)    
Max Wind Speed 15 mph    
Max Gust Speed 23 mph    
Visibility 10 miles    
Events      
Averages and records for this station are not official NWS values.
T = Trace of Precipitation, MM = Missing Value Source: NWS Daily Summary

Daily Weather History Graph

Daily Weather History Graph

Search for Another Location

Airport or City:

Trip Planner

Search our weather history database for the weather conditions in past years. The results will help you decide how hot, cold, wet, or windy it might be!

Date:

Astronomy

Nov. 03, 2013 Rise Set
Actual Time 6:47 AM CST 5:35 PM CST
Civil Twilight 6:22 AM CST 6:00 PM CST
Nautical Twilight 5:52 AM CST 6:30 PM CST
Astronomical Twilight 5:24 AM CST 6:58 PM CST
Moon 6:52 AM CST (11/3) 5:53 PM CST (11/3)
Length of Visible Light 11h 38m
Length of Day
10h 47m
New Moon, 0% of the Moon is Illuminated
Nov 3
New Moon
Nov 9
First Quarter
Nov 17
Full
Nov 25
Last Quarter
Dec 2
New

Hourly Weather History & Observations

Time (CST) Temp. Dew Point Humidity Pressure Visibility Wind Dir Wind Speed Gust Speed Precip Events Conditions
12:15 AM 50.0 °F 41.0 °F 71% 30.25 in 10.0 mi Calm Calm - N/A   Clear
12:35 AM 51.8 °F 39.2 °F 62% 30.25 in 10.0 mi Calm Calm - N/A   Clear
12:55 AM 50.0 °F 39.2 °F 66% 30.25 in 10.0 mi Calm Calm - N/A   Clear
1:15 AM 50.0 °F 39.2 °F 66% 30.25 in 10.0 mi Calm Calm - N/A   Clear
1:35 AM 50.0 °F 39.2 °F 66% 30.24 in 10.0 mi Calm Calm - N/A   Clear
1:55 AM 50.0 °F 39.2 °F 66% 30.24 in 10.0 mi Calm Calm - N/A   Clear
1:15 AM 48.2 °F 39.2 °F 71% 30.25 in 10.0 mi Calm Calm - N/A   Clear
1:35 AM 48.2 °F 37.4 °F 66% 30.24 in 10.0 mi Calm Calm - N/A   Clear
1:55 AM 48.2 °F 37.4 °F 66% 30.24 in 10.0 mi Calm Calm - N/A   Clear
2:15 AM 48.2 °F 37.4 °F 66% 30.24 in 10.0 mi Calm Calm - N/A   Clear
2:35 AM 48.2 °F 37.4 °F 66% 30.23 in 10.0 mi Calm Calm - N/A   Clear
2:55 AM 46.4 °F 37.4 °F 71% 30.22 in 10.0 mi Calm Calm - N/A   Clear
3:15 AM 46.4 °F 35.6 °F 66% 30.21 in 5.0 mi Calm Calm - N/A   Clear
3:35 AM 48.2 °F 35.6 °F 62% 30.22 in 4.0 mi Calm Calm - N/A   Clear
3:55 AM 48.2 °F 33.8 °F 58% 30.21 in 10.0 mi Calm Calm - N/A   Clear
4:15 AM 48.2 °F 33.8 °F 58% 30.21 in 10.0 mi SSE 3.5 mph - N/A   Clear
4:35 AM 50.0 °F 33.8 °F 54% 30.21 in 10.0 mi SSE 4.6 mph - N/A   Clear
4:55 AM 50.0 °F 33.8 °F 54% 30.21 in 10.0 mi South 3.5 mph - N/A   Clear
5:15 AM 50.0 °F 35.6 °F 58% 30.22 in 10.0 mi South 4.6 mph - N/A   Clear
5:35 AM 50.0 °F 35.6 °F 58% 30.22 in 10.0 mi Calm Calm - N/A   Clear
5:55 AM 50.0 °F 35.6 °F 58% 30.22 in 10.0 mi South 3.5 mph - N/A   Clear
7:50 AM 51.8 °F 37.4 °F 58% 30.23 in 10.0 mi SE 5.8 mph - N/A   Clear
8:50 AM 55.4 °F 37.4 °F 51% 30.22 in 10.0 mi SE 10.4 mph - N/A   Clear
9:51 AM 59.0 °F 37.4 °F 45% 30.22 in 10.0 mi SE 8.1 mph - N/A   Clear
10:59 AM 62.6 °F 35.6 °F 37% 30.18 in 10.0 mi ESE 13.8 mph 19.6 mph N/A   Clear
11:52 AM 62.6 °F 33.8 °F 34% 30.18 in 10.0 mi SSE 11.5 mph - N/A   Clear
12:51 PM 64.4 °F 37.4 °F 37% 30.14 in 10.0 mi SE 8.1 mph - N/A   Clear
1:55 PM 66.2 °F 37.4 °F 35% 30.09 in 10.0 mi South 8.1 mph - N/A   Clear
2:50 PM 64.4 °F 35.6 °F 34% 30.09 in 10.0 mi SSE 8.1 mph - N/A   Clear
3:50 PM 64.4 °F 37.4 °F 37% 30.07 in 10.0 mi SSE 11.5 mph - N/A   Clear
4:50 PM 62.6 °F 37.4 °F 39% 30.06 in 10.0 mi SE 5.8 mph - N/A   Clear
8:15 PM 60.8 °F 41.0 °F 48% 30.08 in 10.0 mi South 11.5 mph 16.1 mph N/A   Clear
8:35 PM 59.0 °F 41.0 °F 51% 30.07 in 10.0 mi SSE 11.5 mph 19.6 mph N/A   Clear
8:55 PM 59.0 °F 42.8 °F 55% 30.05 in 10.0 mi SSE 12.7 mph 19.6 mph N/A   Clear
9:15 PM 59.0 °F 42.8 °F 55% 30.03 in 10.0 mi SSE 15.0 mph 23.0 mph N/A   Clear
9:35 PM 59.0 °F 42.8 °F 55% 30.01 in 10.0 mi SSE 15.0 mph 23.0 mph N/A   Clear
9:55 PM 59.0 °F 42.8 °F 55% 30.04 in 10.0 mi SSE 8.1 mph - N/A   Clear
10:15 PM 59.0 °F 42.8 °F 55% 30.06 in 10.0 mi South 6.9 mph 16.1 mph N/A   Clear
10:35 PM 59.0 °F 44.6 °F 59% 30.05 in 10.0 mi SSE 10.4 mph - N/A   Clear
10:55 PM 59.0 °F 44.6 °F 59% 30.03 in 10.0 mi SSE 12.7 mph 16.1 mph N/A   Clear